| time (UTC) | temp F | wind direction | speed MPH | gust MPH | rain 1hr in | rain 24hr in | rain mn in | humidity % | barometer mb |
| 20260502123733 | 71 | 207 | 0.0 | 0.0 | 0.00 | 1.28 | 0.00 | 43 | 978.2 |
| 20260502123233 | 71 | 207 | 0.0 | 0.0 | 0.00 | 1.28 | 0.00 | 43 | 978.2 |
| 20260502122732 | 71 | 207 | 0.0 | 0.0 | 0.00 | 1.28 | 0.00 | 43 | 978.2 |
| 20260502121733 | 70 | 207 | 0.0 | 0.0 | 0.00 | 1.28 | 0.00 | 43 | 978.1 |
| 20260502121233 | 70 | 207 | 0.0 | 0.0 | 0.00 | 1.28 | 0.00 | 43 | 978.1 |
| 20260502120732 | 71 | 207 | 0.0 | 0.0 | 0.00 | 1.28 | 0.00 | 43 | 978.1 |
| 20260502120231 | 71 | 207 | 0.0 | 0.0 | 0.00 | 1.28 | 0.00 | 43 | 978.0 |
| 20260502115737 | 71 | 207 | 0.0 | 0.0 | 0.00 | 1.28 | 0.00 | 42 | 978.1 |
| 20260502115233 | 71 | 207 | 0.0 | 0.0 | 0.00 | 1.28 | 0.00 | 42 | 978.1 |
| 20260502114732 | 71 | 207 | 0.0 | 0.0 | 0.00 | 1.28 | 0.00 | 42 | 978.1 |
| 20260502114233 | 72 | 207 | 0.0 | 0.0 | 0.00 | 1.28 | 0.00 | 42 | 978.1 |
| 20260502113732 | 72 | 207 | 0.0 | 0.0 | 0.00 | 1.28 | 0.00 | 41 | 978.1 |
| 20260502113232 | 72 | 207 | 0.0 | 0.0 | 0.00 | 1.28 | 0.00 | 41 | 978.2 |
| 20260502112731 | 0 | 207 | 0.0 | 0.0 | 0.00 | 1.28 | 0.00 | 978.2 | |
| 20260502111734 | 72 | 207 | 0.0 | 0.0 | 0.00 | 1.28 | 0.00 | 41 | 978.2 |
| 20260502110733 | 73 | 207 | 0.0 | 1.0 | 0.00 | 1.28 | 0.00 | 41 | 978.2 |
| 20260502110232 | 73 | 207 | 0.0 | 1.0 | 0.00 | 1.28 | 0.00 | 41 | 978.2 |
| 20260502105733 | 73 | 204 | 0.0 | 1.0 | 0.00 | 1.28 | 0.00 | 40 | 978.3 |
| 20260502105233 | 73 | 241 | 0.0 | 4.0 | 0.00 | 1.28 | 0.00 | 40 | 978.2 |
| 20260502104233 | 72 | 162 | 0.0 | 2.0 | 0.00 | 1.28 | 0.00 | 41 | 978.3 |
| 20260502103733 | 72 | 209 | 0.0 | 2.0 | 0.00 | 1.28 | 0.00 | 40 | 978.3 |
| 20260502102733 | 71 | 0 | 0.0 | 0.0 | 0.00 | 1.28 | 0.00 | 40 | 978.2 |
| 20260502101732 | 0 | 0 | 0.0 | 0.0 | 0.00 | 1.28 | 0.00 | 978.2 | |
| 20260502100734 | 73 | 0 | 0.0 | 0.0 | 0.00 | 1.28 | 0.00 | 39 | 978.2 |
| 20260502100233 | 73 | 0 | 0.0 | 0.0 | 0.00 | 1.28 | 0.00 | 39 | 978.3 |
| 20260502091232 | 73 | 0 | 0.0 | 0.0 | 0.00 | 1.28 | 0.00 | 38 | 978.2 |
| 20260502090731 | 73 | 0 | 0.0 | 0.0 | 0.00 | 1.28 | 0.00 | 38 | 978.3 |
| 20260502090232 | 73 | 0 | 0.0 | 0.0 | 0.00 | 1.28 | 0.00 | 38 | 978.3 |
| 20260502071233 | 75 | 0 | 0.0 | 0.0 | 0.00 | 1.28 | 0.00 | 38 | 979.2 |
| 20260502070231 | 75 | 0 | 0.0 | 0.0 | 0.00 | 1.28 | 0.00 | 38 | 979.3 |
| 20260502065732 | 75 | 0 | 0.0 | 0.0 | 0.00 | 1.28 | 1.28 | 38 | 979.2 |
| 20260502064735 | 75 | 0 | 0.0 | 0.0 | 0.00 | 1.28 | 1.28 | 38 | 979.2 |
| 20260502063736 | 75 | 0 | 0.0 | 1.0 | 0.00 | 1.28 | 1.28 | 37 | 979.2 |
| 20260502063234 | 76 | 0 | 0.0 | 0.0 | 0.00 | 1.28 | 1.28 | 37 | 979.2 |
| 20260502062735 | 76 | 0 | 0.0 | 0.0 | 0.00 | 1.28 | 1.28 | 37 | 979.1 |
| 20260502062235 | 76 | 0 | 0.0 | 0.0 | 0.00 | 1.28 | 1.28 | 37 | 979.2 |
| 20260502061235 | 76 | 0 | 0.0 | 0.0 | 0.00 | 1.28 | 1.28 | 37 | 979.2 |
| 20260502060236 | 76 | 0 | 0.0 | 1.0 | 0.00 | 1.28 | 1.28 | 36 | 979.1 |
| 20260502055737 | 76 | 0 | 0.0 | 1.0 | 0.00 | 1.28 | 1.28 | 36 | 979.1 |
| 20260502054235 | 77 | 0 | 0.0 | 1.0 | 0.00 | 1.28 | 1.28 | 36 | 979.1 |
| 20260502053736 | 77 | 0 | 0.0 | 1.0 | 0.00 | 1.28 | 1.28 | 36 | 979.2 |
| 20260502053238 | 77 | 0 | 0.0 | 1.0 | 0.00 | 1.28 | 1.28 | 37 | 979.2 |
| 20260502052235 | 77 | 0 | 0.0 | 3.0 | 0.00 | 1.28 | 1.28 | 37 | 979.0 |
| 20260502051234 | 77 | 0 | 0.0 | 2.0 | 0.00 | 1.28 | 1.28 | 37 | 979.0 |
| 20260502050748 | 77 | 0 | 0.0 | 2.0 | 0.00 | 1.28 | 1.28 | 37 | 979.0 |
| 20260502045735 | 77 | 0 | 0.0 | 2.0 | 0.00 | 1.28 | 1.28 | 37 | 979.0 |
| 20260502045236 | 78 | 0 | 0.0 | 2.0 | 0.00 | 1.28 | 1.28 | 37 | 978.9 |
| 20260502044735 | 78 | 0 | 0.0 | 1.0 | 0.00 | 1.28 | 1.28 | 36 | 978.9 |
| 20260502044235 | 78 | 0 | 0.0 | 2.0 | 0.00 | 1.28 | 1.28 | 36 | 978.8 |
| 20260502043734 | 78 | 0 | 0.0 | 4.0 | 0.00 | 1.28 | 1.28 | 36 | 978.8 |
| 20260502043234 | 78 | 0 | 0.0 | 4.0 | 0.00 | 1.28 | 1.28 | 36 | 978.7 |
| 20260502042735 | 79 | 6 | 0.0 | 2.0 | 0.00 | 1.28 | 1.28 | 35 | 978.6 |
| 20260502042236 | 79 | 6 | 0.0 | 4.0 | 0.00 | 1.28 | 1.28 | 35 | 978.6 |
| 20260502041734 | 79 | 4 | 0.0 | 4.0 | 0.00 | 1.28 | 1.28 | 35 | 978.5 |
| 20260502041234 | 79 | 3 | 1.0 | 4.0 | 0.00 | 1.28 | 1.28 | 35 | 978.5 |
| 20260502040735 | 79 | 0 | 0.0 | 4.0 | 0.00 | 1.28 | 1.28 | 35 | 978.5 |
| 20260502040236 | 79 | 0 | 0.0 | 5.0 | 0.00 | 1.28 | 1.28 | 35 | 978.4 |
| 20260502035734 | 80 | 0 | 1.0 | 5.0 | 0.00 | 1.28 | 1.28 | 34 | 978.3 |
| 20260502035234 | 80 | 6 | 0.0 | 5.0 | 0.00 | 1.28 | 1.28 | 34 | 978.3 |
| 20260502034735 | 80 | 0 | 1.0 | 2.0 | 0.00 | 1.28 | 1.28 | 34 | 978.1 |
| 20260502034236 | 80 | 1 | 0.0 | 2.0 | 0.00 | 1.28 | 1.28 | 34 | 978.1 |
| 20260502033734 | 80 | 0 | 0.0 | 4.0 | 0.00 | 1.28 | 1.28 | 34 | 978.1 |
| 20260502033234 | 80 | 0 | 2.0 | 4.0 | 0.00 | 1.28 | 1.28 | 34 | 978.1 |
| 20260502032734 | 80 | 0 | 2.0 | 4.0 | 0.00 | 1.28 | 1.28 | 34 | 978.1 |
| 20260502032234 | 80 | 0 | 1.0 | 6.0 | 0.00 | 1.28 | 1.28 | 33 | 978.0 |
| 20260502031734 | 80 | 348 | 3.0 | 6.0 | 0.00 | 1.28 | 1.28 | 33 | 978.0 |
| 20260502030234 | 81 | 0 | 0.0 | 4.0 | 0.00 | 1.28 | 1.28 | 32 | 977.7 |
| 20260502025734 | 81 | 1 | 1.0 | 4.0 | 0.00 | 1.28 | 1.28 | 32 | 977.8 |
| 20260502025235 | 81 | 0 | 1.0 | 4.0 | 0.00 | 1.28 | 1.28 | 32 | 977.8 |
| 20260502024730 | 0 | 0.0 | 0.0 | 0.00 | 1.28 | 1.28 | 977.8 | ||
| 20260502024228 | 81 | 0 | 0.0 | 5.0 | 0.00 | 1.28 | 1.28 | 31 | 977.6 |
| 20260502023721 | 81 | 0 | 0.0 | 5.0 | 0.00 | 1.28 | 1.28 | 31 | 977.5 |
| 20260502023211 | 81 | 0 | 0.0 | 5.0 | 0.00 | 1.28 | 1.28 | 31 | 977.5 |
| 20260502022711 | 81 | 351 | 0.0 | 5.0 | 0.00 | 1.28 | 1.28 | 31 | 977.5 |
| 20260502022208 | 82 | 0 | 1.0 | 3.0 | 0.00 | 1.28 | 1.28 | 31 | 977.5 |
| 20260502021707 | 82 | 0 | 1.0 | 5.0 | 0.00 | 1.28 | 1.28 | 31 | 977.4 |
| 20260502021207 | 82 | 0 | 2.0 | 7.0 | 0.00 | 1.28 | 1.28 | 31 | 977.3 |
| 20260502020220 | 82 | 3 | 2.0 | 6.0 | 0.00 | 1.28 | 1.28 | 31 | 977.4 |
| 20260502015708 | 82 | 6 | 1.0 | 10.0 | 0.00 | 1.28 | 1.28 | 30 | 977.2 |
| 20260502015207 | 83 | 0 | 1.0 | 10.0 | 0.00 | 1.28 | 1.28 | 30 | 977.3 |
| 20260502014707 | 83 | 357 | 2.0 | 9.0 | 0.00 | 1.28 | 1.28 | 30 | 977.2 |
| 20260502014206 | 83 | 7 | 2.0 | 13.0 | 0.00 | 1.28 | 1.28 | 30 | 977.1 |
| 20260502013707 | 83 | 357 | 4.0 | 13.0 | 0.00 | 1.28 | 1.28 | 30 | 977.1 |
| 20260502012708 | 84 | 0 | 3.0 | 13.0 | 0.00 | 1.28 | 1.28 | 29 | 976.8 |
| 20260502012207 | 85 | 6 | 4.0 | 13.0 | 0.00 | 1.28 | 1.28 | 29 | 976.9 |
| 20260502011720 | 85 | 1 | 4.0 | 11.0 | 0.00 | 1.28 | 1.28 | 29 | 976.8 |
| 20260502011207 | 85 | 31 | 4.0 | 9.0 | 0.00 | 1.28 | 1.28 | 29 | 976.7 |
| 20260502010708 | 85 | 1 | 2.0 | 15.0 | 0.00 | 1.28 | 1.28 | 29 | 976.5 |
| 20260502005709 | 86 | 0 | 5.0 | 11.0 | 0.00 | 1.28 | 1.28 | 29 | 976.5 |
| 20260502004708 | 86 | 1 | 4.0 | 13.0 | 0.00 | 1.28 | 1.28 | 29 | 976.3 |
| 20260502004207 | 87 | 348 | 3.0 | 12.0 | 0.00 | 1.28 | 1.28 | 28 | 976.2 |
| 20260502003707 | 87 | 347 | 4.0 | 12.0 | 0.00 | 1.28 | 1.28 | 28 | 976.3 |
| 20260502002706 | 89 | 324 | 2.0 | 4.0 | 0.00 | 1.28 | 1.28 | 26 | 976.0 |
| 20260502001207 | 90 | 329 | 0.0 | 3.0 | 0.00 | 1.28 | 1.28 | 25 | 975.9 |
| 20260502000707 | 90 | 330 | 1.0 | 3.0 | 0.00 | 1.28 | 1.28 | 25 | 975.9 |
| 20260502000211 | 90 | 330 | 0.0 | 0.0 | 0.00 | 1.28 | 1.28 | 25 | 975.9 |
| 20260501235706 | 90 | 330 | 0.0 | 1.0 | 0.00 | 1.28 | 1.28 | 25 | 975.9 |
| 20260501235206 | 90 | 329 | 0.0 | 3.0 | 0.00 | 1.28 | 1.28 | 25 | 976.0 |
| 20260501234207 | 89 | 330 | 0.0 | 9.0 | 0.00 | 1.28 | 1.28 | 25 | 976.0 |
| 20260501233707 | 89 | 333 | 0.0 | 9.0 | 0.00 | 1.28 | 1.28 | 25 | 975.9 |
| 20260501233207 | 90 | 319 | 0.0 | 7.0 | 0.00 | 1.28 | 1.28 | 24 | 975.8 |
| 20260501232708 | 90 | 313 | 0.0 | 7.0 | 0.00 | 1.28 | 1.28 | 24 | 975.9 |
| 20260501232208 | 90 | 265 | 0.0 | 0.0 | 0.00 | 1.28 | 1.28 | 24 | 975.9 |
| 20260501231708 | 89 | 266 | 0.0 | 0.0 | 0.00 | 1.28 | 1.28 | 24 | 976.0 |
| 20260501231212 | 89 | 312 | 0.0 | 1.0 | 0.00 | 1.28 | 1.28 | 24 | 975.9 |
| 20260501230709 | 89 | 312 | 0.0 | 1.0 | 0.00 | 1.28 | 1.28 | 24 | 976.1 |
| 20260501230218 | 89 | 306 | 0.0 | 1.0 | 0.00 | 1.28 | 1.28 | 24 | 976.1 |
| 20260501225707 | 89 | 306 | 0.0 | 0.0 | 0.00 | 1.28 | 1.28 | 24 | 976.0 |
| 20260501225206 | 89 | 306 | 0.0 | 4.0 | 0.00 | 1.28 | 1.28 | 25 | 976.1 |
| 20260501224707 | 89 | 306 | 0.0 | 4.0 | 0.00 | 1.28 | 1.28 | 25 | 976.2 |
| 20260501224207 | 90 | 254 | 0.0 | 2.0 | 0.00 | 1.28 | 1.28 | 25 | 976.2 |
| 20260501223707 | 90 | 306 | 0.0 | 2.0 | 0.00 | 1.28 | 1.28 | 25 | 976.3 |
| 20260501223207 | 90 | 312 | 0.0 | 2.0 | 0.00 | 1.28 | 1.28 | 25 | 976.4 |
| 20260501222206 | 89 | 313 | 1.0 | 5.0 | 0.00 | 1.28 | 1.28 | 25 | 976.4 |
| 20260501221707 | 89 | 289 | 0.0 | 5.0 | 0.00 | 1.28 | 1.28 | 25 | 976.5 |
| 20260501221208 | 89 | 327 | 0.0 | 9.0 | 0.00 | 1.28 | 1.28 | 26 | 976.5 |
| 20260501220707 | 89 | 326 | 1.0 | 9.0 | 0.00 | 1.28 | 1.28 | 25 | 976.6 |
| 20260501220207 | 89 | 330 | 2.0 | 7.0 | 0.00 | 1.28 | 1.28 | 26 | 976.6 |
| 20260501215706 | 89 | 300 | 1.0 | 4.0 | 0.00 | 1.28 | 1.28 | 26 | 976.7 |
| 20260501215206 | 88 | 264 | 0.0 | 4.0 | 0.00 | 1.28 | 1.28 | 26 | 976.7 |
| 20260501214707 | 88 | 351 | 1.0 | 4.0 | 0.00 | 1.28 | 1.28 | 26 | 976.8 |
| 20260501214204 | 89 | 305 | 0.0 | 4.0 | 0.00 | 1.28 | 1.28 | 26 | 976.8 |
| 20260501213659 | 88 | 348 | 0.0 | 2.0 | 0.00 | 1.28 | 1.28 | 26 | 976.9 |
| 20260501212643 | 88 | 265 | 0.0 | 1.0 | 0.00 | 1.28 | 1.28 | 26 | 977.0 |
| 20260501212137 | 88 | 355 | 0.0 | 4.0 | 0.00 | 1.28 | 1.28 | 27 | 977.2 |
| 20260501211135 | 88 | 0 | 0.0 | 4.0 | 0.00 | 1.28 | 1.28 | 27 | 977.3 |
| 20260501210636 | 88 | 351 | 0.0 | 4.0 | 0.00 | 1.28 | 1.28 | 27 | 977.4 |
| 20260501210136 | 88 | 353 | 0.0 | 3.0 | 0.00 | 1.28 | 1.28 | 27 | 977.4 |
| 20260501205635 | 87 | 345 | 0.0 | 3.0 | 0.00 | 1.28 | 1.28 | 28 | 977.5 |
| 20260501204636 | 87 | 338 | 0.0 | 4.0 | 0.00 | 1.28 | 1.28 | 29 | 977.6 |
| 20260501204136 | 86 | 338 | 0.0 | 4.0 | 0.00 | 1.28 | 1.28 | 30 | 977.7 |
| 20260501203636 | 86 | 338 | 0.0 | 3.0 | 0.00 | 1.28 | 1.28 | 30 | 977.8 |
| 20260501203136 | 86 | 338 | 1.0 | 5.0 | 0.00 | 1.28 | 1.28 | 30 | 977.9 |
| 20260501202636 | 86 | 314 | 0.0 | 5.0 | 0.00 | 1.28 | 1.28 | 31 | 977.9 |
| 20260501202136 | 86 | 313 | 1.0 | 2.0 | 0.00 | 1.28 | 1.28 | 31 | 977.9 |
| 20260501201636 | 85 | 334 | 0.0 | 6.0 | 0.00 | 1.28 | 1.28 | 31 | 977.9 |
| 20260501200133 | 0 | 0.0 | 0.0 | 0.00 | 1.28 | 1.28 | 978.0 | ||
| 20260501195636 | 85 | 4 | 0.0 | 0.0 | 0.00 | 1.28 | 1.28 | 32 | 978.1 |
| 20260501194636 | 85 | 4 | 0.0 | 3.0 | 0.00 | 1.28 | 1.28 | 33 | 978.2 |
| 20260501194134 | 84 | 4 | 0.0 | 3.0 | 0.00 | 1.28 | 1.28 | 33 | 978.3 |
| 20260501193136 | 84 | 23 | 0.0 | 2.0 | 0.00 | 1.28 | 1.28 | 35 | 978.3 |
| 20260501192635 | 83 | 23 | 0.0 | 3.0 | 0.00 | 1.28 | 1.28 | 35 | 978.4 |
| 20260501192136 | 83 | 13 | 0.0 | 3.0 | 0.00 | 1.28 | 1.28 | 35 | 978.5 |
| 20260501191636 | 83 | 54 | 0.0 | 1.0 | 0.00 | 1.28 | 1.28 | 35 | 978.5 |
| 20260501191134 | 0 | 0.0 | 0.0 | 0.00 | 1.28 | 1.28 | 978.6 | ||
| 20260501190636 | 82 | 178 | 0.0 | 1.0 | 0.00 | 1.28 | 1.28 | 36 | 978.6 |
| 20260501190136 | 82 | 178 | 0.0 | 1.0 | 0.00 | 1.28 | 1.28 | 36 | 978.8 |
| 20260501185634 | 83 | 282 | 0.0 | 1.0 | 0.00 | 1.28 | 1.28 | 36 | 979.0 |
| 20260501185135 | 83 | 255 | 0.0 | 1.0 | 0.00 | 1.28 | 1.28 | 36 | 978.9 |
| 20260501184635 | 83 | 233 | 0.0 | 1.0 | 0.00 | 1.28 | 1.28 | 37 | 979.0 |
| 20260501184134 | 82 | 314 | 0.0 | 1.0 | 0.00 | 1.28 | 1.28 | 37 | 979.1 |
| 20260501183636 | 82 | 314 | 0.0 | 1.0 | 0.00 | 1.28 | 1.28 | 38 | 979.1 |
| 20260501183135 | 82 | 305 | 0.0 | 0.0 | 0.00 | 1.28 | 1.28 | 39 | 979.3 |
| 20260501182636 | 82 | 305 | 0.0 | 2.0 | 0.00 | 1.28 | 1.28 | 39 | 979.3 |
| 20260501182135 | 81 | 305 | 0.0 | 2.0 | 0.00 | 1.28 | 1.28 | 40 | 979.5 |
| 20260501181641 | 80 | 305 | 0.0 | 0.0 | 0.00 | 1.28 | 1.28 | 41 | 979.5 |
| 20260501181136 | 80 | 358 | 0.0 | 0.0 | 0.00 | 1.28 | 1.28 | 41 | 979.6 |
| 20260501175636 | 79 | 357 | 0.0 | 0.0 | 0.00 | 1.28 | 1.28 | 44 | 979.6 |
| 20260501175140 | 79 | 357 | 0.0 | 0.0 | 0.00 | 1.28 | 1.28 | 44 | 979.6 |
| 20260501174636 | 79 | 358 | 0.0 | 0.0 | 0.00 | 1.28 | 1.28 | 44 | 979.8 |
| 20260501174136 | 80 | 358 | 0.0 | 0.0 | 0.00 | 1.28 | 1.28 | 44 | 979.8 |
| 20260501173136 | 79 | 358 | 0.0 | 1.0 | 0.00 | 1.28 | 1.28 | 44 | 979.9 |
| 20260501172635 | 78 | 357 | 0.0 | 0.0 | 0.00 | 1.28 | 1.28 | 45 | 979.9 |
| 20260501172137 | 78 | 357 | 0.0 | 0.0 | 0.00 | 1.28 | 1.28 | 46 | 980.0 |
| 20260501171636 | 78 | 357 | 0.0 | 0.0 | 0.00 | 1.28 | 1.28 | 46 | 980.0 |
| 20260501170633 | 76 | 357 | 0.0 | 0.0 | 0.00 | 1.28 | 1.28 | 49 | 980.0 |
| 20260501170133 | 76 | 357 | 0.0 | 0.0 | 0.00 | 1.28 | 1.28 | 49 | 980.1 |
| 20260501165633 | 76 | 358 | 0.0 | 0.0 | 0.00 | 1.28 | 0.00 | 49 | 980.0 |
| 20260501165131 | 76 | 357 | 0.0 | 0.0 | 0.00 | 1.28 | 0.00 | 50 | 980.0 |
| 20260501164132 | 75 | 357 | 0.0 | 0.0 | 1.28 | 1.28 | 0.00 | 50 | 980.0 |
| 20260501163632 | 75 | 358 | 0.0 | 2.0 | 1.28 | 1.28 | 0.00 | 51 | 979.9 |
| 20260501163134 | 75 | 358 | 0.0 | 2.0 | 1.28 | 1.28 | 0.00 | 51 | 979.9 |
| 20260501162138 | 74 | 326 | 0.0 | 0.0 | 1.28 | 1.28 | 0.00 | 51 | 979.9 |
| 20260501161634 | 74 | 326 | 0.0 | 0.0 | 1.28 | 1.28 | 0.00 | 51 | 979.9 |
| 20260501161133 | 75 | 326 | 0.0 | 0.0 | 1.28 | 1.28 | 0.00 | 51 | 979.8 |
| 20260501160632 | 75 | 326 | 0.0 | 0.0 | 1.28 | 1.28 | 0.00 | 51 | 979.8 |
| 20260501160134 | 73 | 326 | 0.0 | 0.0 | 1.28 | 1.28 | 1.28 | 52 | 979.8 |
| 20260501155633 | 73 | 326 | 0.0 | 0.0 | 1.28 | 0.00 | 1.28 | 52 | 979.8 |
| 20260501154637 | 72 | 288 | 7.0 | 115.0 | 0.00 | 0.00 | 0.00 | 53 | 979.8 |
| 20260501154133 | 71 | 326 | 0.0 | 0.0 | 0.00 | 0.00 | 0.00 | 53 | 979.8 |
| 20260501153133 | 71 | 326 | 0.0 | 0.0 | 0.00 | 0.00 | 0.00 | 54 | 979.7 |
| 20260501152134 | 70 | 326 | 0.0 | 0.0 | 0.00 | 0.00 | 0.00 | 55 | 979.7 |
| 20260501151632 | 70 | 326 | 0.0 | 0.0 | 0.00 | 0.00 | 0.00 | 55 | 979.5 |
| 20260501151133 | 70 | 326 | 0.0 | 0.0 | 0.00 | 0.00 | 0.00 | 54 | 979.4 |
| 20260501150134 | 69 | 326 | 0.0 | 0.0 | 0.00 | 0.00 | 0.00 | 55 | 979.5 |
| 20260501145634 | 69 | 326 | 0.0 | 0.0 | 0.00 | 0.00 | 0.00 | 57 | 979.4 |
| 20260501145132 | 69 | 326 | 0.0 | 0.0 | 0.00 | 0.00 | 0.00 | 57 | 979.5 |
| 20260501144133 | 69 | 326 | 0.0 | 0.0 | 0.00 | 0.00 | 0.00 | 56 | 979.3 |
| 20260501143145 | 69 | 326 | 0.0 | 0.0 | 0.00 | 0.00 | 0.00 | 56 | 979.2 |
| 20260501142648 | 69 | 324 | 0.0 | 0.0 | 0.00 | 0.00 | 0.00 | 56 | 979.1 |
| 20260501142132 | 69 | 326 | 0.0 | 0.0 | 0.00 | 0.00 | 0.00 | 57 | 979.1 |